| time (UTC) | temp F | wind direction | speed MPH | gust MPH | rain 1hr in | rain 24hr in | rain mn in | humidity % | barometer mb |
| 20260905145035 | 85 | 151 | 5.0 | 9.0 | 0.00 | 0.00 | 0.00 | 74 | 1013.0 |
| 20260905143035 | 84 | 189 | 3.0 | 9.0 | 0.00 | 0.00 | 0.00 | 76 | 1013.0 |
| 20260905142036 | 84 | 180 | 0.0 | 5.0 | 0.00 | 0.00 | 0.00 | 79 | 1013.1 |
| 20260905141035 | 83 | 146 | 3.0 | 7.0 | 0.00 | 0.00 | 0.00 | 80 | 1013.0 |
| 20260905140035 | 83 | 152 | 3.0 | 7.0 | 0.00 | 0.00 | 0.00 | 81 | 1012.9 |
| 20260905135035 | 82 | 132 | 3.0 | 7.0 | 0.00 | 0.00 | 0.00 | 82 | 1012.9 |
| 20260905134036 | 81 | 171 | 2.0 | 6.0 | 0.00 | 0.00 | 0.00 | 83 | 1012.8 |
| 20260905133035 | 81 | 163 | 2.0 | 5.0 | 0.00 | 0.00 | 0.00 | 84 | 1012.8 |
| 20260905131035 | 79 | 165 | 4.0 | 4.0 | 0.00 | 0.00 | 0.00 | 86 | 1012.5 |
| 20260905130036 | 79 | 173 | 0.0 | 4.0 | 0.00 | 0.00 | 0.00 | 86 | 1012.4 |
| 20260905125035 | 78 | 171 | 0.0 | 4.0 | 0.00 | 0.00 | 0.00 | 87 | 1012.3 |
| 20260905124036 | 78 | 188 | 2.0 | 4.0 | 0.00 | 0.00 | 0.00 | 87 | 1012.2 |
| 20260905123035 | 77 | 161 | 2.0 | 2.0 | 0.00 | 0.00 | 0.00 | 87 | 1012.1 |
| 20260905122036 | 76 | 145 | 0.0 | 1.0 | 0.00 | 0.00 | 0.00 | 86 | 1012.0 |
| 20260905121035 | 77 | 116 | 0.0 | 1.0 | 0.00 | 0.00 | 0.00 | 86 | 1012.0 |
| 20260905120035 | 77 | 169 | 0.0 | 0.0 | 0.00 | 0.00 | 0.00 | 86 | 1011.9 |
| 20260905115036 | 77 | 169 | 0.0 | 0.0 | 0.00 | 0.00 | 0.00 | 86 | 1011.8 |
| 20260905114035 | 77 | 169 | 0.0 | 0.0 | 0.00 | 0.00 | 0.00 | 86 | 1011.7 |
| 20260905112035 | 77 | 169 | 0.0 | 0.0 | 0.00 | 0.00 | 0.00 | 85 | 1011.6 |
| 20260905111035 | 77 | 169 | 0.0 | 0.0 | 0.00 | 0.00 | 0.00 | 85 | 1011.5 |
| 20260905110035 | 77 | 169 | 0.0 | 0.0 | 0.00 | 0.00 | 0.00 | 84 | 1011.5 |
| 20260905105036 | 77 | 169 | 0.0 | 0.0 | 0.00 | 0.00 | 0.00 | 84 | 1011.5 |
| 20260905104035 | 78 | 169 | 0.0 | 0.0 | 0.00 | 0.00 | 0.00 | 84 | 1011.6 |
| 20260905103035 | 78 | 169 | 0.0 | 0.0 | 0.00 | 0.00 | 0.00 | 84 | 1011.5 |
| 20260905102035 | 78 | 169 | 0.0 | 0.0 | 0.00 | 0.00 | 0.00 | 83 | 1011.6 |
| 20260905101035 | 78 | 169 | 0.0 | 0.0 | 0.00 | 0.00 | 0.00 | 83 | 1011.4 |
| 20260905100035 | 79 | 169 | 0.0 | 0.0 | 0.00 | 0.00 | 0.00 | 83 | 1011.3 |
| 20260905095035 | 79 | 169 | 0.0 | 0.0 | 0.00 | 0.00 | 0.00 | 83 | 1011.3 |
| 20260905094035 | 79 | 185 | 1.0 | 3.0 | 0.00 | 0.00 | 0.00 | 83 | 1011.4 |
| 20260905093035 | 79 | 191 | 0.0 | 3.0 | 0.00 | 0.00 | 0.00 | 83 | 1011.3 |
| 20260905092035 | 79 | 169 | 0.0 | 6.0 | 0.00 | 0.00 | 0.00 | 82 | 1011.4 |
| 20260905091035 | 79 | 150 | 2.0 | 6.0 | 0.00 | 0.00 | 0.00 | 82 | 1011.4 |
| 20260905090035 | 79 | 167 | 4.0 | 6.0 | 0.00 | 0.00 | 0.00 | 82 | 1011.4 |
| 20260905085035 | 79 | 191 | 2.0 | 5.0 | 0.00 | 0.00 | 0.00 | 82 | 1011.4 |
| 20260905084035 | 79 | 175 | 1.0 | 3.0 | 0.00 | 0.00 | 0.00 | 82 | 1011.6 |
| 20260905083035 | 79 | 189 | 0.0 | 3.0 | 0.00 | 0.00 | 0.00 | 81 | 1011.6 |
| 20260905082035 | 79 | 159 | 1.0 | 5.0 | 0.00 | 0.00 | 0.00 | 81 | 1011.4 |
| 20260905081035 | 79 | 178 | 1.0 | 4.0 | 0.00 | 0.00 | 0.00 | 80 | 1011.5 |
| 20260905080035 | 80 | 167 | 1.0 | 6.0 | 0.00 | 0.00 | 0.00 | 80 | 1011.6 |
| 20260905075035 | 80 | 146 | 1.0 | 6.0 | 0.00 | 0.00 | 0.00 | 79 | 1011.6 |
| 20260905074035 | 80 | 172 | 2.0 | 7.0 | 0.00 | 0.00 | 0.00 | 79 | 1011.6 |
| 20260905073035 | 80 | 167 | 5.0 | 6.0 | 0.00 | 0.00 | 0.00 | 79 | 1011.7 |
| 20260905071035 | 80 | 176 | 2.0 | 6.0 | 0.00 | 0.00 | 0.00 | 78 | 1011.8 |
| 20260905070035 | 80 | 154 | 2.0 | 6.0 | 0.00 | 0.00 | 0.00 | 78 | 1011.9 |
| 20260905064035 | 81 | 165 | 5.0 | 8.0 | 0.00 | 0.00 | 0.00 | 77 | 1012.0 |
| 20260905063035 | 81 | 184 | 4.0 | 8.0 | 0.00 | 0.00 | 0.00 | 76 | 1011.9 |
| 20260905060035 | 81 | 180 | 2.0 | 7.0 | 0.00 | 0.00 | 0.00 | 75 | 1012.1 |
| 20260905055035 | 81 | 127 | 3.0 | 8.0 | 0.00 | 0.00 | 0.00 | 75 | 1012.0 |
| 20260905053035 | 81 | 147 | 4.0 | 5.0 | 0.00 | 0.00 | 0.00 | 75 | 1012.1 |
| 20260905052035 | 82 | 140 | 3.0 | 4.0 | 0.00 | 0.00 | 0.00 | 74 | 1012.1 |
| 20260905051035 | 82 | 167 | 0.0 | 5.0 | 0.00 | 0.00 | 0.00 | 74 | 1012.1 |
| 20260905050035 | 82 | 172 | 1.0 | 6.0 | 0.00 | 0.00 | 0.00 | 74 | 1012.2 |
| 20260905045035 | 82 | 176 | 3.0 | 5.0 | 0.00 | 0.00 | 0.01 | 74 | 1012.1 |
| 20260905044035 | 82 | 173 | 2.0 | 5.0 | 0.00 | 0.00 | 0.01 | 74 | 1012.1 |
| 20260905043035 | 82 | 181 | 1.0 | 7.0 | 0.00 | 0.00 | 0.01 | 73 | 1012.0 |
| 20260905042036 | 82 | 172 | 2.0 | 3.0 | 0.00 | 0.00 | 0.01 | 73 | 1012.1 |
| 20260905041035 | 82 | 159 | 2.0 | 6.0 | 0.00 | 0.00 | 0.01 | 72 | 1012.1 |
| 20260905035035 | 83 | 132 | 0.0 | 8.0 | 0.00 | 0.00 | 0.01 | 72 | 1012.0 |
| 20260905033035 | 82 | 155 | 3.0 | 3.0 | 0.00 | 0.00 | 0.01 | 72 | 1011.9 |
| 20260905031035 | 82 | 131 | 0.0 | 0.0 | 0.00 | 0.00 | 0.01 | 73 | 1011.9 |
| 20260905030035 | 83 | 131 | 0.0 | 0.0 | 0.00 | 0.00 | 0.01 | 72 | 1011.8 |
| 20260905025035 | 83 | 131 | 0.0 | 2.0 | 0.00 | 0.00 | 0.01 | 72 | 1011.7 |
| 20260905023035 | 84 | 173 | 0.0 | 4.0 | 0.00 | 0.00 | 0.01 | 72 | 1011.4 |
| 20260905022035 | 84 | 142 | 0.0 | 4.0 | 0.00 | 0.00 | 0.01 | 71 | 1011.3 |
| 20260905021035 | 84 | 146 | 0.0 | 5.0 | 0.00 | 0.00 | 0.01 | 70 | 1011.3 |
| 20260905020035 | 85 | 131 | 3.0 | 6.0 | 0.00 | 0.00 | 0.01 | 70 | 1011.3 |
| 20260905015035 | 85 | 165 | 0.0 | 7.0 | 0.00 | 0.00 | 0.01 | 70 | 1011.1 |
| 20260905014035 | 85 | 119 | 2.0 | 7.0 | 0.00 | 0.00 | 0.01 | 70 | 1011.0 |
| 20260905011035 | 86 | 186 | 0.0 | 3.0 | 0.00 | 0.00 | 0.01 | 68 | 1010.7 |
| 20260905010035 | 86 | 155 | 0.0 | 4.0 | 0.00 | 0.00 | 0.01 | 67 | 1010.7 |
| 20260905005035 | 87 | 130 | 2.0 | 7.0 | 0.00 | 0.00 | 0.01 | 66 | 1010.6 |
| 20260905004035 | 87 | 136 | 0.0 | 9.0 | 0.00 | 0.00 | 0.01 | 66 | 1010.4 |
| 20260905003035 | 87 | 172 | 3.0 | 8.0 | 0.00 | 0.00 | 0.01 | 65 | 1010.4 |
| 20260905002035 | 87 | 151 | 3.0 | 7.0 | 0.00 | 0.00 | 0.01 | 65 | 1010.4 |
| 20260905001035 | 87 | 123 | 1.0 | 4.0 | 0.00 | 0.00 | 0.01 | 65 | 1010.2 |
| 20260904235035 | 86 | 132 | 3.0 | 6.0 | 0.00 | 0.00 | 0.01 | 65 | 1010.3 |
| 20260904234035 | 86 | 139 | 2.0 | 7.0 | 0.00 | 0.00 | 0.01 | 64 | 1010.3 |
| 20260904233035 | 86 | 138 | 3.0 | 8.0 | 0.00 | 0.00 | 0.01 | 63 | 1010.1 |
| 20260904232035 | 86 | 181 | 2.0 | 7.0 | 0.00 | 0.00 | 0.01 | 61 | 1010.3 |
| 20260904231035 | 86 | 185 | 5.0 | 10.0 | 0.00 | 0.00 | 0.01 | 60 | 1010.2 |
| 20260904230035 | 86 | 147 | 9.0 | 13.0 | 0.00 | 0.00 | 0.01 | 62 | 1010.1 |
| 20260904225035 | 86 | 125 | 10.0 | 18.0 | 0.00 | 0.00 | 0.01 | 62 | 1010.1 |
| 20260904224035 | 90 | 151 | 6.0 | 17.0 | 0.00 | 0.00 | 0.01 | 57 | 1010.1 |
| 20260904223035 | 94 | 124 | 8.0 | 19.0 | 0.00 | 0.00 | 0.01 | 53 | 1010.0 |
| 20260904222035 | 96 | 154 | 3.0 | 11.0 | 0.00 | 0.00 | 0.01 | 46 | 1009.9 |
| 20260904221035 | 96 | 174 | 5.0 | 15.0 | 0.00 | 0.00 | 0.01 | 45 | 1009.8 |
| 20260904220035 | 96 | 189 | 5.0 | 14.0 | 0.00 | 0.00 | 0.01 | 45 | 1009.7 |
| 20260904215035 | 95 | 156 | 3.0 | 12.0 | 0.00 | 0.00 | 0.01 | 45 | 1010.0 |
| 20260904213034 | 95 | 177 | 5.0 | 11.0 | 0.00 | 0.00 | 0.01 | 47 | 1010.5 |
| 20260904212035 | 94 | 148 | 4.0 | 10.0 | 0.00 | 0.00 | 0.01 | 48 | 1010.6 |
| 20260904211034 | 94 | 141 | 5.0 | 10.0 | 0.00 | 0.00 | 0.01 | 49 | 1010.6 |
| 20260904210035 | 95 | 171 | 7.0 | 11.0 | 0.00 | 0.00 | 0.01 | 48 | 1010.6 |
| 20260904205034 | 94 | 195 | 5.0 | 11.0 | 0.00 | 0.00 | 0.01 | 51 | 1010.8 |
| 20260904203034 | 94 | 235 | 9.0 | 16.0 | 0.00 | 0.00 | 0.01 | 54 | 1011.1 |
| 20260904202034 | 93 | 188 | 3.0 | 13.0 | 0.00 | 0.00 | 0.01 | 54 | 1011.4 |
| 20260904201035 | 93 | 128 | 7.0 | 10.0 | 0.00 | 0.00 | 0.01 | 55 | 1011.4 |
| 20260904200035 | 93 | 127 | 7.0 | 13.0 | 0.00 | 0.00 | 0.01 | 53 | 1011.6 |
| 20260904194034 | 92 | 171 | 9.0 | 12.0 | 0.00 | 0.00 | 0.01 | 55 | 1011.6 |
| 20260904193035 | 92 | 236 | 2.0 | 11.0 | 0.00 | 0.00 | 0.01 | 55 | 1011.8 |
| 20260904192035 | 92 | 187 | 6.0 | 14.0 | 0.00 | 0.00 | 0.01 | 58 | 1011.9 |
| 20260904191035 | 91 | 203 | 5.0 | 12.0 | 0.00 | 0.00 | 0.01 | 60 | 1012.0 |
| 20260904190034 | 92 | 180 | 6.0 | 15.0 | 0.00 | 0.00 | 0.01 | 58 | 1012.2 |
| 20260904185035 | 91 | 212 | 10.0 | 11.0 | 0.00 | 0.00 | 0.01 | 59 | 1012.2 |
| 20260904183035 | 91 | 184 | 9.0 | 12.0 | 0.00 | 0.00 | 0.01 | 59 | 1012.6 |
| 20260904182034 | 91 | 228 | 6.0 | 12.0 | 0.00 | 0.00 | 0.01 | 58 | 1012.6 |
| 20260904181034 | 90 | 169 | 7.0 | 11.0 | 0.00 | 0.00 | 0.01 | 59 | 1012.7 |
| 20260904175035 | 89 | 225 | 4.0 | 8.0 | 0.00 | 0.00 | 0.01 | 60 | 1012.9 |
| 20260904174035 | 88 | 123 | 3.0 | 11.0 | 0.00 | 0.00 | 0.01 | 58 | 1013.0 |
| 20260904173034 | 88 | 163 | 2.0 | 10.0 | 0.00 | 0.00 | 0.01 | 63 | 1013.0 |
| 20260904172034 | 88 | 193 | 4.0 | 10.0 | 0.00 | 0.00 | 0.01 | 64 | 1013.1 |
| 20260904171034 | 88 | 162 | 5.0 | 9.0 | 0.00 | 0.00 | 0.01 | 65 | 1013.1 |
| 20260904170034 | 88 | 178 | 4.0 | 8.0 | 0.00 | 0.00 | 0.01 | 66 | 1013.1 |
| 20260904164034 | 88 | 219 | 7.0 | 8.0 | 0.00 | 0.00 | 0.01 | 65 | 1013.3 |
| 20260904163034 | 88 | 217 | 3.0 | 10.0 | 0.00 | 0.00 | 0.01 | 66 | 1013.2 |
| 20260904161034 | 88 | 192 | 5.0 | 9.0 | 0.00 | 0.00 | 0.01 | 67 | 1013.1 |
| 20260904160034 | 87 | 191 | 6.0 | 9.0 | 0.00 | 0.00 | 0.01 | 68 | 1013.0 |
| 20260904155034 | 87 | 221 | 3.0 | 9.0 | 0.00 | 0.00 | 0.01 | 70 | 1013.1 |
| 20260904154034 | 86 | 207 | 3.0 | 8.0 | 0.00 | 0.00 | 0.01 | 69 | 1013.0 |
| 20260904153034 | 86 | 186 | 1.0 | 11.0 | 0.00 | 0.00 | 0.01 | 71 | 1012.9 |
| 20260904151034 | 85 | 234 | 7.0 | 12.0 | 0.00 | 0.00 | 0.01 | 73 | 1012.6 |
| 20260904150034 | 85 | 209 | 9.0 | 11.0 | 0.00 | 0.00 | 0.01 | 74 | 1012.6 |